COSMOS 2489

Satellite information

Favourite Embed

Satellite Type and Status

PAYLOADIN ORBIT

Key statistics

Satellite COSMOS 2489 at a glance.

Uptime

4316

Days in orbit

Revolutions

≈ 12.4

Per day

Orbit

LEO

Low Earth Orbit

Inclination

82.5

Latest

Satellite identification and parameters

Extended collection of information and parameters for COSMOS 2489.

Object identification

Identified? True

Debris? False

Object name: COSMOS 2489

International designator: 2013-076B

Object number (NORAD): 39484

Object ID (CCSDS): 39484

Country: COMMONWEALTH OF INDEPENDENT STATES (CIS)

Current information (Y/N): Y

RCS size: LARGE

Orbital parameters

Period: 115.861 minutes

Inclination: 82.4876 deg

SMA: 7872.6 km

Apoapsis: 1510.028 km

Periapsis: 1478.901 km

RAAN: 320.3593 deg

Eccentricy: 0.00197689

Argument of periapsis: 260.78 deg

Mean anomaly: 99.1044 deg

Mean motion: 12.42869463 rev/day

Mean motion (dot): 0.00000016 rev/day2

B* drag term: 0.000047493552 1/REarth

Two-line elements (TLE)

Creation date: Oct. 19, 2025, 2:20 a.m.

Reference frame: TEME

Reference center: EARTH

Epoch: Oct. 18, 2025, 10:07 p.m. UTC

TLE line 0: 0 COSMOS 2489

TLE line 1: 1 39484U 13076B 25291.92192758 .00000016 00000-0 47494-4 0 9996

TLE line 2: 2 39484 82.4876 320.3593 0019769 260.7800 99.1044 12.42869463535976

Live tracking on map

Real-time ground track for satellite COSMOS 2489.

In-orbit conjunctions

There are no conjunctions computed for COSMOS 2489, at the moment. Check back to stay up to date, as we update our databases every day.

Go to all conjunctions

Associated space launch

COSMOS 2489 was lifted into orbit during the mission ‘Rokot / Briz-KM | 3 x Strela-3M (Kosmos-2488, Kosmos-2489, Kosmos-2490) & Kosmos-2491’, on board a Rokot/Briz-KM space rocket.

The launch took place on Dec. 25, 2013, 12:31 a.m. from 133/3 (133L).

For more information about the launch, click the button.

Launch to space Rokot / Briz-KM | 3 x Strela-3M (Kosmos-2488, Kosmos-2489, Kosmos-2490) & Kosmos-2491
Rokot / Briz-KM | 3 x Strela-3M (Kosmos-2488, Kosmos-2489, Kosmos-2490) & Kosmos-2491

Agency: N/A

Status: Launch Successful

Launch date: Dec. 25, 2013, 12:31 a.m. UTC

Rocket: Rokot/Briz-KM

Launch pad: 133/3 (133L)

Location: Plesetsk Cosmodrome, Russian Federation

...

Latest news about this satellite

There are no fresh news available about this satellite. Check back as we update our databases every day.


Newsletter sign-up

Weekly statistics, charts and insights to help you stay on top of the space industry.